QPF
0.00 0.00 0.00 0.00 0.00 0.01 0.01 0.01 0.00 0.01 0.01 0.00 0.00 0.01 0.01 0.02 0.03 0.05 0.04 0.02 0.03 0.09 0.05 0.03 0.06 0.06 0.06 0.05 0.06 0.11 0.15 0.17 0.22 0.18 0.16 0.17 0.17 0.14 0.15 0.23 0.28 0.27 0.30 0.33 0.32 0.28 0.32 0.31 0.30
0.00 0.00 0.00 0.00 0.01 0.01 0.01 0.01 0.01 0.01 0.01 0.00 0.00 0.00 0.00 0.01 0.01 0.03 0.04 0.03 0.05 0.06 0.04 0.04 0.05 0.05 0.04 0.04 0.05 0.08 0.12 0.16 0.18 0.15 0.13 0.15 0.17 0.20 0.19 0.26 0.25 0.24 0.26 0.31 0.36 0.35 0.38 0.37 0.33
0.00 0.00 0.00 0.00 0.01 0.01 0.01 0.00 0.01 0.02 0.01 0.00 0.00 0.00 0.00 0.01 0.01 0.02 0.03 0.02 0.03 0.03 0.03 0.04 0.04 0.04 0.03 0.04 0.05 0.06 0.09 0.14 0.16 0.13 0.11 0.11 0.15 0.21 0.24 0.27 0.21 0.17 0.17 0.26 0.32 0.31 0.27 0.26 0.25
0.00 0.00 0.00 0.00 0.01 0.01 0.00 0.00 0.00 0.01 0.00 0.00 0.00 0.00 0.00 0.01 0.01 0.01 0.01 0.01 0.01 0.01 0.02 0.02 0.03 0.03 0.03 0.04 0.06 0.08 0.09 0.11 0.12 0.12 0.10 0.11 0.14 0.19 0.29 0.24 0.18 0.14 0.15 0.22 0.22 0.19 0.17 0.18 0.19
0.00 0.00 0.00 0.00 0.01 0.01 0.00 0.00 0.00 0.00 0.01 0.00 0.00 0.00 0.01 0.01 0.01 0.01 0.00 0.01 0.01 0.01 0.02 0.02 0.02 0.02 0.03 0.04 0.07 0.08 0.10 0.10 0.12 0.14 0.15 0.14 0.14 0.18 0.24 0.22 0.19 0.17 0.16 0.21 0.17 0.14 0.13 0.14 0.16
0.00 0.00 0.00 0.00 0.01 0.01 0.00 0.00 0.00 0.01 0.01 0.00 0.00 0.00 0.01 0.01 0.02 0.01 0.00 0.01 0.01 0.01 0.01 0.01 0.03 0.03 0.03 0.05 0.07 0.08 0.09 0.10 0.12 0.15 0.16 0.14 0.14 0.13 0.14 0.17 0.16 0.17 0.20 0.21 0.13 0.12 0.12 0.13 0.12
0.00 0.00 0.00 0.00 0.00 0.01 0.00 0.00 0.00 0.01 0.01 0.00 0.00 0.00 0.01 0.01 0.01 0.01 0.00 0.01 0.01 0.01 0.01 0.01 0.02 0.03 0.03 0.03 0.05 0.06 0.10 0.13 0.14 0.13 0.13 0.13 0.11 0.11 0.11 0.12 0.13 0.15 0.18 0.15 0.10 0.11 0.10 0.09 0.09
0.00 0.00 0.00 0.00 0.00 0.00 0.00 0.00 0.00 0.00 0.00 0.00 0.00 0.00 0.01 0.01 0.00 0.00 0.00 0.00 0.00 0.01 0.01 0.01 0.01 0.03 0.04 0.04 0.04 0.06 0.11 0.14 0.12 0.11 0.13 0.12 0.12 0.10 0.10 0.10 0.13 0.15 0.13 0.10 0.08 0.09 0.08 0.07 0.09
0.00 0.00 0.00 0.00 0.00 0.00 0.00 0.00 0.00 0.00 0.00 0.01 0.00 0.01 0.01 0.01 0.00 0.01 0.01 0.01 0.01 0.01 0.02 0.03 0.02 0.04 0.05 0.04 0.04 0.06 0.08 0.09 0.10 0.11 0.12 0.13 0.12 0.10 0.11 0.10 0.12 0.13 0.13 0.10 0.09 0.09 0.07 0.06 0.08
0.00 0.00 0.00 0.00 0.00 0.00 0.00 0.00 0.00 0.00 0.00 0.01 0.01 0.00 0.01 0.01 0.01 0.01 0.02 0.02 0.02 0.03 0.02 0.03 0.05 0.05 0.04 0.03 0.04 0.06 0.05 0.06 0.06 0.07 0.08 0.08 0.08 0.09 0.08 0.09 0.10 0.11 0.12 0.10 0.08 0.06 0.04 0.03 0.03
0.00 0.00 0.00 0.00 0.00 0.00 0.00 0.00 0.00 0.00 0.00 0.00 0.00 0.00 0.00 0.00 0.00 0.01 0.01 0.01 0.01 0.02 0.02 0.03 0.05 0.07 0.07 0.07 0.06 0.06 0.05 0.04 0.05 0.06 0.05 0.06 0.05 0.06 0.07 0.09 0.09 0.08 0.07 0.05 0.04 0.03 0.03 0.02 0.03
0.00 0.00 0.00 0.00 0.00 0.00 0.00 0.00 0.00 0.00 0.00 0.00 0.00 0.00 0.00 0.00 0.00 0.01 0.01 0.00 0.01 0.02 0.04 0.04 0.04 0.06 0.08 0.07 0.06 0.07 0.05 0.05 0.06 0.06 0.05 0.04 0.05 0.06 0.06 0.07 0.07 0.06 0.06 0.05 0.03 0.03 0.03 0.03 0.04
0.00 0.00 0.00 0.00 0.00 0.00 0.00 0.00 0.00 0.00 0.00 0.00 0.00 0.01 0.00 0.00 0.00 0.00 0.01 0.01 0.01 0.02 0.03 0.04 0.05 0.06 0.07 0.07 0.08 0.07 0.08 0.08 0.06 0.07 0.05 0.04 0.05 0.05 0.04 0.05 0.06 0.05 0.05 0.05 0.05 0.05 0.04 0.04 0.04
0.00 0.00 0.00 0.00 0.00 0.00 0.00 0.00 0.00 0.00 0.00 0.00 0.00 0.00 0.00 0.00 0.00 0.01 0.01 0.01 0.01 0.01 0.03 0.03 0.03 0.04 0.05 0.07 0.09 0.09 0.08 0.07 0.06 0.07 0.05 0.05 0.05 0.05 0.05 0.05 0.06 0.05 0.04 0.04 0.04 0.05 0.06 0.06 0.05
0.00 0.00 0.00 0.00 0.00 0.00 0.00 0.00 0.00 0.00 0.00 0.00 0.00 0.00 0.00 0.00 0.01 0.01 0.01 0.01 0.00 0.02 0.02 0.02 0.02 0.02 0.03 0.04 0.05 0.05 0.06 0.05 0.06 0.06 0.05 0.05 0.06 0.06 0.05 0.06 0.06 0.04 0.03 0.03 0.03 0.04 0.05 0.05 0.04
0.00 0.00 0.00 0.00 0.00 0.00 0.00 0.00 0.00 0.00 0.00 0.00 0.00 0.00 0.00 0.01 0.01 0.00 0.00 0.01 0.01 0.01 0.02 0.02 0.01 0.02 0.03 0.04 0.05 0.04 0.04 0.05 0.05 0.06 0.06 0.05 0.05 0.05 0.05 0.05 0.06 0.05 0.04 0.04 0.05 0.05 0.05 0.05 0.05
0.00 0.00 0.00 0.00 0.00 0.00 0.00 0.00 0.00 0.00 0.00 0.00 0.00 0.00 0.00 0.00 0.00 0.00 0.00 0.00 0.00 0.01 0.02 0.03 0.02 0.03 0.03 0.03 0.04 0.03 0.04 0.06 0.06 0.08 0.07 0.06 0.05 0.04 0.04 0.05 0.06 0.06 0.05 0.06 0.05 0.06 0.07 0.08 0.09
0.00 0.00 0.00 0.00 0.00 0.00 0.00 0.00 0.00 0.00 0.00 0.00 0.00 0.00 0.00 0.00 0.00 0.00 0.00 0.00 0.00 0.00 0.01 0.02 0.02 0.02 0.02 0.02 0.03 0.04 0.05 0.04 0.05 0.07 0.08 0.07 0.05 0.03 0.04 0.04 0.05 0.05 0.05 0.07 0.07 0.08 0.08 0.08 0.09
0.00 0.00 0.00 0.00 0.00 0.00 0.00 0.00 0.00 0.00 0.00 0.00 0.00 0.00 0.00 0.00 0.00 0.00 0.00 0.00 0.00 0.00 0.01 0.02 0.03 0.03 0.03 0.03 0.03 0.03 0.04 0.04 0.05 0.05 0.05 0.06 0.05 0.04 0.07 0.04 0.05 0.05 0.05 0.06 0.06 0.06 0.06 0.06 0.06
0.00 0.00 0.00 0.00 0.00 0.00 0.00 0.00 0.00 0.00 0.00 0.00 0.00 0.00 0.00 0.00 0.00 0.00 0.00 0.00 0.00 0.00 0.00 0.01 0.02 0.02 0.02 0.03 0.03 0.03 0.02 0.02 0.03 0.03 0.04 0.04 0.06 0.05 0.05 0.06 0.05 0.06 0.07 0.07 0.07 0.08 0.06 0.05 0.06
0.00 0.00 0.00 0.00 0.00 0.00 0.00 0.00 0.00 0.00 0.00 0.00 0.00 0.00 0.00 0.00 0.00 0.00 0.00 0.00 0.00 0.00 0.00 0.00 0.01 0.02 0.02 0.02 0.02 0.01 0.02 0.02 0.03 0.04 0.05 0.04 0.04 0.03 0.05 0.07 0.08 0.09 0.08 0.08 0.08 0.08 0.07 0.07 0.05
0.00 0.00 0.00 0.00 0.00 0.00 0.00 0.00 0.00 0.00 0.00 0.00 0.00 0.00 0.00 0.00 0.00 0.00 0.00 0.00 0.00 0.00 0.00 0.00 0.01 0.01 0.01 0.01 0.02 0.02 0.01 0.02 0.03 0.03 0.03 0.03 0.03 0.03 0.04 0.05 0.07 0.08 0.08 0.07 0.06 0.06 0.07 0.07 0.05
0.00 0.00 0.00 0.00 0.00 0.00 0.00 0.00 0.00 0.00 0.00 0.00 0.00 0.00 0.00 0.00 0.00 0.00 0.00 0.00 0.00 0.00 0.00 0.00 0.00 0.01 0.01 0.01 0.02 0.02 0.02 0.02 0.02 0.03 0.04 0.04 0.03 0.04 0.03 0.04 0.06 0.07 0.09 0.09 0.06 0.06 0.07 0.06 0.07
0.00 0.00 0.00 0.00 0.00 0.00 0.00 0.00 0.00 0.00 0.00 0.00 0.00 0.00 0.00 0.00 0.00 0.00 0.00 0.00 0.00 0.00 0.00 0.00 0.00 0.01 0.01 0.01 0.02 0.02 0.02 0.02 0.03 0.04 0.05 0.05 0.05 0.05 0.04 0.04 0.05 0.05 0.06 0.06 0.06 0.07 0.09 0.08 0.09
0.00 0.00 0.00 0.00 0.01 0.00 0.00 0.00 0.00 0.00 0.00 0.00 0.00 0.00 0.00 0.00 0.00 0.00 0.00 0.00 0.00 0.00 0.00 0.00 0.01 0.01 0.01 0.01 0.01 0.01 0.02 0.03 0.05 0.05 0.05 0.04 0.04 0.05 0.05 0.03 0.04 0.05 0.05 0.03 0.04 0.06 0.07 0.06 0.08
0.00 0.00 0.00 0.01 0.01 0.00 0.00 0.00 0.00 0.00 0.00 0.00 0.00 0.00 0.00 0.00 0.00 0.00 0.00 0.00 0.00 0.00 0.00 0.00 0.01 0.01 0.01 0.02 0.03 0.03 0.03 0.06 0.11 0.11 0.09 0.05 0.04 0.04 0.03 0.03 0.04 0.03 0.03 0.03 0.05 0.05 0.05 0.04 0.05
0.00 0.00 0.00 0.00 0.00 0.00 0.00 0.00 0.00 0.00 0.00 0.00 0.00 0.00 0.00 0.00 0.00 0.00 0.00 0.00 0.00 0.00 0.00 0.00 0.01 0.01 0.02 0.03 0.03 0.04 0.04 0.04 0.06 0.10 0.11 0.06 0.05 0.04 0.04 0.04 0.06 0.05 0.04 0.04 0.05 0.05 0.04 0.04 0.05
0.00 0.00 0.00 0.00 0.00 0.00 0.00 0.00 0.00 0.00 0.00 0.00 0.00 0.00 0.00 0.00 0.00 0.00 0.00 0.00 0.00 0.00 0.00 0.00 0.00 0.01 0.01 0.02 0.02 0.02 0.03 0.03 0.04 0.04 0.05 0.05 0.05 0.04 0.04 0.03 0.03 0.03 0.03 0.03 0.03 0.04 0.05 0.05 0.05
0.00 0.00 0.00 0.00 0.00 0.00 0.00 0.00 0.00 0.00 0.00 0.00 0.00 0.00 0.00 0.00 0.00 0.00 0.00 0.00 0.00 0.00 0.00 0.00 0.00 0.00 0.01 0.01 0.02 0.02 0.02 0.01 0.02 0.03 0.03 0.03 0.03 0.03 0.02 0.01 0.02 0.01 0.02 0.02 0.03 0.03 0.04 0.05 0.04
0.00 0.00 0.00 0.00 0.00 0.00 0.00 0.00 0.00 0.00 0.00 0.00 0.00 0.00 0.00 0.00 0.00 0.00 0.00 0.00 0.00 0.00 0.00 0.00 0.00 0.00 0.01 0.01 0.02 0.02 0.01 0.01 0.01 0.02 0.02 0.03 0.03 0.02 0.01 0.01 0.02 0.01 0.01 0.02 0.02 0.02 0.02 0.05 0.07
MSLP
1006.72 1007.29 1008.08 1008.99 1009.91 1010.73 1011.37 1011.82 1012.08 1012.22 1012.29 1012.36 1012.46 1012.59 1012.72 1012.82 1012.85 1012.80 1012.68 1012.53 1012.41 1012.37 1012.43 1012.59 1012.81 1013.05 1013.24 1013.34 1013.33 1013.23 1013.09 1012.97 1012.94 1013.03 1013.23 1013.50 1013.80 1014.04 1014.18 1014.19 1014.09 1013.94 1013.80 1013.73 1013.77 1013.93 1014.17 1014.44 1014.69
1006.85 1007.50 1008.38 1009.37 1010.33 1011.15 1011.76 1012.12 1012.28 1012.28 1012.23 1012.20 1012.24 1012.35 1012.51 1012.68 1012.79 1012.82 1012.78 1012.68 1012.59 1012.54 1012.58 1012.72 1012.92 1013.16 1013.36 1013.49 1013.53 1013.49 1013.41 1013.35 1013.36 1013.46 1013.67 1013.93 1014.21 1014.43 1014.57 1014.59 1014.53 1014.43 1014.35 1014.34 1014.43 1014.62 1014.87 1015.13 1015.33
1007.18 1007.91 1008.86 1009.88 1010.85 1011.66 1012.22 1012.51 1012.57 1012.49 1012.35 1012.25 1012.25 1012.35 1012.53 1012.72 1012.88 1012.95 1012.94 1012.85 1012.74 1012.67 1012.68 1012.78 1012.98 1013.22 1013.46 1013.65 1013.76 1013.81 1013.81 1013.81 1013.85 1013.96 1014.14 1014.37 1014.59 1014.77 1014.88 1014.90 1014.87 1014.82 1014.81 1014.87 1015.02 1015.24 1015.50 1015.74 1015.90
1007.64 1008.43 1009.41 1010.44 1011.40 1012.18 1012.69 1012.93 1012.94 1012.80 1012.62 1012.49 1012.46 1012.55 1012.72 1012.92 1013.08 1013.14 1013.11 1013.00 1012.86 1012.75 1012.71 1012.80 1012.98 1013.25 1013.54 1013.81 1014.01 1014.15 1014.24 1014.30 1014.38 1014.49 1014.63 1014.80 1014.96 1015.08 1015.15 1015.17 1015.15 1015.15 1015.20 1015.32 1015.53 1015.78 1016.04 1016.24 1016.34
1008.13 1008.95 1009.93 1010.94 1011.87 1012.60 1013.08 1013.29 1013.28 1013.14 1012.96 1012.82 1012.79 1012.87 1013.02 1013.19 1013.32 1013.34 1013.27 1013.11 1012.93 1012.78 1012.72 1012.79 1012.99 1013.29 1013.63 1013.98 1014.27 1014.50 1014.66 1014.78 1014.88 1014.99 1015.10 1015.22 1015.32 1015.39 1015.42 1015.43 1015.43 1015.46 1015.56 1015.73 1015.96 1016.22 1016.46 1016.62 1016.67
1008.56 1009.38 1010.32 1011.27 1012.14 1012.82 1013.27 1013.48 1013.49 1013.38 1013.24 1013.14 1013.13 1013.21 1013.34 1013.48 1013.55 1013.53 1013.41 1013.21 1013.00 1012.83 1012.77 1012.84 1013.06 1013.38 1013.77 1014.17 1014.52 1014.81 1015.03 1015.19 1015.31 1015.42 1015.51 1015.60 1015.66 1015.70 1015.72 1015.72 1015.73 1015.78 1015.90 1016.09 1016.33 1016.58 1016.78 1016.89 1016.88
1008.88 1009.65 1010.51 1011.37 1012.15 1012.77 1013.20 1013.42 1013.49 1013.45 1013.39 1013.37 1013.40 1013.50 1013.62 1013.73 1013.77 1013.70 1013.55 1013.33 1013.11 1012.95 1012.90 1013.00 1013.23 1013.58 1013.98 1014.39 1014.77 1015.08 1015.31 1015.49 1015.63 1015.74 1015.83 1015.91 1015.97 1016.00 1016.02 1016.02 1016.04 1016.11 1016.23 1016.41 1016.63 1016.84 1017.00 1017.05 1016.99
1009.10 1009.79 1010.53 1011.27 1011.94 1012.50 1012.90 1013.15 1013.28 1013.35 1013.39 1013.47 1013.58 1013.72 1013.86 1013.95 1013.97 1013.89 1013.73 1013.53 1013.33 1013.21 1013.19 1013.31 1013.55 1013.89 1014.28 1014.66 1015.01 1015.29 1015.51 1015.68 1015.81 1015.93 1016.04 1016.13 1016.21 1016.26 1016.29 1016.31 1016.34 1016.40 1016.50 1016.66 1016.83 1016.99 1017.09 1017.10 1017.00
1009.25 1009.84 1010.45 1011.06 1011.62 1012.09 1012.47 1012.75 1012.96 1013.13 1013.30 1013.48 1013.68 1013.88 1014.06 1014.17 1014.19 1014.13 1013.99 1013.83 1013.68 1013.60 1013.63 1013.77 1014.01 1014.32 1014.66 1014.98 1015.25 1015.46 1015.63 1015.76 1015.88 1016.00 1016.13 1016.25 1016.36 1016.45 1016.50 1016.54 1016.57 1016.61 1016.69 1016.80 1016.91 1017.02 1017.07 1017.03 1016.90
1009.40 1009.88 1010.37 1010.84 1011.29 1011.69 1012.04 1012.35 1012.64 1012.92 1013.20 1013.49 1013.78 1014.05 1014.26 1014.41 1014.45 1014.42 1014.33 1014.22 1014.13 1014.11 1014.18 1014.33 1014.56 1014.82 1015.08 1015.30 1015.47 1015.59 1015.68 1015.76 1015.85 1015.97 1016.12 1016.28 1016.42 1016.54 1016.63 1016.67 1016.70 1016.72 1016.75 1016.81 1016.87 1016.92 1016.92 1016.86 1016.72
1009.58 1009.98 1010.37 1010.74 1011.09 1011.42 1011.75 1012.09 1012.43 1012.79 1013.17 1013.56 1013.92 1014.25 1014.50 1014.67 1014.75 1014.75 1014.71 1014.65 1014.62 1014.65 1014.75 1014.91 1015.11 1015.31 1015.48 1015.60 1015.66 1015.68 1015.69 1015.71 1015.78 1015.89 1016.05 1016.23 1016.40 1016.55 1016.65 1016.69 1016.70 1016.69 1016.69 1016.69 1016.70 1016.71 1016.68 1016.60 1016.46
1009.83 1010.19 1010.51 1010.80 1011.08 1011.37 1011.68 1012.02 1012.41 1012.83 1013.27 1013.71 1014.13 1014.49 1014.77 1014.95 1015.05 1015.08 1015.07 1015.06 1015.07 1015.14 1015.25 1015.40 1015.57 1015.71 1015.80 1015.82 1015.80 1015.74 1015.67 1015.65 1015.68 1015.78 1015.94 1016.13 1016.32 1016.48 1016.58 1016.62 1016.61 1016.56 1016.52 1016.48 1016.45 1016.43 1016.39 1016.31 1016.18
1010.14 1010.49 1010.78 1011.03 1011.27 1011.53 1011.82 1012.17 1012.57 1013.02 1013.48 1013.95 1014.37 1014.74 1015.02 1015.21 1015.31 1015.35 1015.36 1015.37 1015.40 1015.48 1015.59 1015.73 1015.86 1015.95 1015.98 1015.95 1015.86 1015.75 1015.65 1015.59 1015.60 1015.69 1015.84 1016.03 1016.21 1016.36 1016.45 1016.47 1016.43 1016.37 1016.29 1016.22 1016.18 1016.14 1016.10 1016.02 1015.91
1010.50 1010.86 1011.14 1011.38 1011.60 1011.85 1012.14 1012.48 1012.88 1013.31 1013.76 1014.21 1014.61 1014.95 1015.21 1015.38 1015.47 1015.50 1015.51 1015.53 1015.56 1015.63 1015.74 1015.85 1015.96 1016.02 1016.02 1015.97 1015.86 1015.74 1015.62 1015.56 1015.56 1015.64 1015.77 1015.94 1016.10 1016.22 1016.28 1016.28 1016.23 1016.15 1016.06 1015.98 1015.93 1015.90 1015.86 1015.80 1015.71
1010.84 1011.22 1011.51 1011.76 1011.99 1012.24 1012.53 1012.85 1013.22 1013.62 1014.02 1014.41 1014.77 1015.06 1015.28 1015.43 1015.51 1015.54 1015.54 1015.55 1015.58 1015.63 1015.72 1015.82 1015.90 1015.95 1015.96 1015.91 1015.82 1015.72 1015.62 1015.56 1015.56 1015.62 1015.73 1015.86 1015.98 1016.07 1016.11 1016.09 1016.03 1015.94 1015.86 1015.79 1015.75 1015.73 1015.71 1015.67 1015.58
1011.15 1011.52 1011.83 1012.10 1012.35 1012.61 1012.89 1013.19 1013.52 1013.85 1014.19 1014.51 1014.80 1015.05 1015.23 1015.36 1015.44 1015.47 1015.48 1015.49 1015.51 1015.55 1015.62 1015.69 1015.77 1015.82 1015.84 1015.83 1015.78 1015.71 1015.64 1015.60 1015.60 1015.64 1015.71 1015.79 1015.87 1015.92 1015.93 1015.90 1015.83 1015.76 1015.70 1015.66 1015.64 1015.64 1015.64 1015.61 1015.53
1011.39 1011.75 1012.07 1012.35 1012.63 1012.90 1013.18 1013.45 1013.72 1013.98 1014.24 1014.48 1014.70 1014.90 1015.06 1015.19 1015.28 1015.34 1015.38 1015.40 1015.43 1015.47 1015.52 1015.58 1015.65 1015.71 1015.75 1015.77 1015.76 1015.74 1015.70 1015.67 1015.66 1015.67 1015.69 1015.72 1015.74 1015.74 1015.73 1015.69 1015.64 1015.60 1015.57 1015.56 1015.58 1015.60 1015.62 1015.59 1015.51
1011.57 1011.90 1012.21 1012.52 1012.82 1013.11 1013.38 1013.61 1013.82 1014.00 1014.16 1014.32 1014.47 1014.63 1014.79 1014.94 1015.07 1015.19 1015.28 1015.35 1015.40 1015.45 1015.50 1015.55 1015.61 1015.67 1015.73 1015.77 1015.80 1015.80 1015.79 1015.76 1015.73 1015.69 1015.65 1015.62 1015.58 1015.54 1015.50 1015.46 1015.43 1015.42 1015.42 1015.46 1015.50 1015.55 1015.58 1015.56 1015.49
1011.68 1011.98 1012.30 1012.62 1012.95 1013.26 1013.52 1013.72 1013.86 1013.94 1014.01 1014.07 1014.16 1014.28 1014.44 1014.63 1014.84 1015.03 1015.20 1015.34 1015.44 1015.51 1015.56 1015.60 1015.65 1015.71 1015.77 1015.82 1015.87 1015.88 1015.87 1015.83 1015.76 1015.67 1015.57 1015.47 1015.37 1015.29 1015.22 1015.18 1015.17 1015.19 1015.23 1015.30 1015.37 1015.44 1015.48 1015.47 1015.39
1011.74 1012.01 1012.34 1012.71 1013.07 1013.40 1013.65 1013.81 1013.87 1013.86 1013.82 1013.78 1013.79 1013.88 1014.04 1014.28 1014.55 1014.84 1015.11 1015.32 1015.48 1015.59 1015.65 1015.70 1015.73 1015.78 1015.83 1015.88 1015.92 1015.94 1015.92 1015.86 1015.75 1015.60 1015.44 1015.27 1015.12 1014.99 1014.90 1014.85 1014.85 1014.89 1014.96 1015.05 1015.14 1015.22 1015.27 1015.26 1015.20
1011.73 1012.01 1012.38 1012.80 1013.21 1013.57 1013.82 1013.94 1013.92 1013.80 1013.64 1013.49 1013.41 1013.44 1013.60 1013.86 1014.20 1014.57 1014.93 1015.23 1015.45 1015.60 1015.69 1015.73 1015.76 1015.79 1015.82 1015.87 1015.90 1015.91 1015.88 1015.79 1015.65 1015.46 1015.24 1015.02 1014.81 1014.64 1014.53 1014.47 1014.48 1014.53 1014.61 1014.71 1014.80 1014.88 1014.93 1014.93 1014.88
1011.67 1011.98 1012.41 1012.90 1013.38 1013.78 1014.03 1014.11 1014.02 1013.79 1013.50 1013.23 1013.04 1013.00 1013.11 1013.38 1013.76 1014.18 1014.61 1014.97 1015.25 1015.44 1015.55 1015.60 1015.62 1015.64 1015.67 1015.70 1015.74 1015.74 1015.70 1015.60 1015.44 1015.22 1014.97 1014.70 1014.46 1014.27 1014.13 1014.06 1014.06 1014.10 1014.18 1014.27 1014.36 1014.44 1014.48 1014.48 1014.45
1011.55 1011.93 1012.44 1013.01 1013.57 1014.01 1014.28 1014.32 1014.16 1013.83 1013.42 1013.02 1012.72 1012.58 1012.62 1012.85 1013.22 1013.67 1014.13 1014.53 1014.85 1015.07 1015.19 1015.25 1015.27 1015.29 1015.31 1015.35 1015.39 1015.40 1015.37 1015.28 1015.11 1014.89 1014.62 1014.35 1014.09 1013.87 1013.71 1013.63 1013.61 1013.63 1013.70 1013.77 1013.84 1013.90 1013.93 1013.94 1013.92
1011.39 1011.84 1012.44 1013.10 1013.73 1014.23 1014.51 1014.55 1014.33 1013.92 1013.41 1012.89 1012.47 1012.23 1012.18 1012.34 1012.67 1013.10 1013.54 1013.95 1014.28 1014.51 1014.64 1014.70 1014.73 1014.75 1014.78 1014.83 1014.88 1014.91 1014.90 1014.83 1014.69 1014.48 1014.22 1013.95 1013.68 1013.46 1013.29 1013.18 1013.14 1013.15 1013.18 1013.23 1013.27 1013.31 1013.33 1013.33 1013.32
1011.21 1011.73 1012.41 1013.15 1013.85 1014.40 1014.72 1014.76 1014.53 1014.07 1013.49 1012.89 1012.37 1012.03 1011.89 1011.96 1012.22 1012.58 1012.98 1013.36 1013.67 1013.88 1014.01 1014.06 1014.09 1014.11 1014.15 1014.21 1014.27 1014.33 1014.35 1014.30 1014.19 1014.01 1013.78 1013.52 1013.26 1013.04 1012.86 1012.74 1012.68 1012.65 1012.65 1012.67 1012.68 1012.68 1012.68 1012.68 1012.67
1011.06 1011.63 1012.36 1013.15 1013.90 1014.50 1014.87 1014.94 1014.73 1014.28 1013.68 1013.05 1012.49 1012.07 1011.85 1011.84 1012.00 1012.28 1012.61 1012.92 1013.18 1013.35 1013.45 1013.49 1013.50 1013.51 1013.54 1013.60 1013.67 1013.74 1013.78 1013.76 1013.67 1013.51 1013.31 1013.07 1012.83 1012.61 1012.43 1012.30 1012.21 1012.15 1012.12 1012.10 1012.08 1012.05 1012.02 1012.00 1011.99
1010.99 1011.58 1012.32 1013.14 1013.91 1014.55 1014.97 1015.10 1014.96 1014.57 1014.03 1013.43 1012.87 1012.44 1012.17 1012.09 1012.16 1012.34 1012.58 1012.80 1012.98 1013.09 1013.14 1013.13 1013.11 1013.09 1013.10 1013.14 1013.19 1013.25 1013.27 1013.25 1013.17 1013.03 1012.84 1012.62 1012.39 1012.18 1012.00 1011.85 1011.74 1011.66 1011.60 1011.54 1011.48 1011.42 1011.36 1011.32 1011.30
1011.06 1011.62 1012.33 1013.13 1013.91 1014.58 1015.04 1015.26 1015.23 1014.96 1014.54 1014.04 1013.55 1013.16 1012.89 1012.76 1012.76 1012.85 1012.98 1013.10 1013.18 1013.21 1013.18 1013.11 1013.03 1012.96 1012.91 1012.90 1012.90 1012.91 1012.90 1012.85 1012.75 1012.60 1012.40 1012.19 1011.96 1011.75 1011.57 1011.42 1011.29 1011.18 1011.09 1011.00 1010.90 1010.80 1010.72 1010.65 1010.60
1011.28 1011.78 1012.44 1013.18 1013.93 1014.60 1015.13 1015.45 1015.55 1015.45 1015.20 1014.86 1014.51 1014.20 1013.97 1013.83 1013.79 1013.79 1013.82 1013.83 1013.80 1013.72 1013.60 1013.44 1013.28 1013.14 1013.01 1012.92 1012.84 1012.77 1012.69 1012.58 1012.42 1012.24 1012.02 1011.79 1011.56 1011.35 1011.16 1011.00 1010.86 1010.74 1010.61 1010.49 1010.36 1010.22 1010.10 1010.00 1009.93
1011.66 1012.09 1012.65 1013.31 1014.01 1014.67 1015.23 1015.65 1015.91 1015.99 1015.94 1015.81 1015.62 1015.44 1015.29 1015.17 1015.09 1015.02 1014.95 1014.85 1014.70 1014.52 1014.29 1014.04 1013.79 1013.55 1013.34 1013.14 1012.97 1012.80 1012.62 1012.42 1012.20 1011.96 1011.70 1011.45 1011.20 1010.98 1010.78 1010.62 1010.46 1010.32 1010.18 1010.02 1009.86 1009.69 1009.53 1009.38 1009.28
Thickness
5822 5826 5827 5822 5811 5791 5771 5774 5781 5777 5776 5781 5781 5778 5770 5764 5760 5749 5765 5773 5772 5772 5769 5764 5762 5762 5763 5763 5763 5764 5764 5764 5763 5763 5763 5763 5763 5763 5762 5761 5762 5761 5761 5760 5759 5758 5757 5756 5756
5833 5831 5826 5823 5802 5774 5766 5778 5775 5775 5780 5784 5782 5778 5772 5765 5769 5766 5769 5770 5772 5771 5770 5764 5761 5761 5761 5762 5762 5763 5763 5763 5762 5762 5761 5761 5761 5761 5760 5759 5759 5758 5758 5757 5757 5756 5755 5754 5753
5836 5834 5826 5817 5794 5778 5770 5780 5778 5781 5786 5783 5778 5777 5771 5764 5768 5768 5770 5771 5772 5770 5768 5763 5761 5761 5761 5761 5761 5761 5762 5761 5760 5760 5760 5759 5759 5758 5758 5757 5757 5756 5756 5755 5754 5754 5752 5752 5751
5837 5833 5829 5810 5785 5786 5786 5785 5786 5783 5783 5784 5780 5771 5770 5772 5773 5773 5772 5772 5772 5770 5769 5764 5761 5760 5761 5761 5761 5761 5761 5760 5759 5758 5758 5758 5757 5756 5756 5755 5754 5754 5753 5752 5752 5751 5750 5750 5749
5842 5834 5815 5797 5788 5791 5795 5794 5792 5784 5779 5780 5780 5768 5763 5771 5776 5775 5773 5773 5772 5771 5769 5766 5760 5760 5761 5761 5760 5760 5759 5758 5757 5756 5756 5756 5755 5754 5753 5753 5752 5752 5751 5750 5750 5749 5749 5748 5747
5837 5833 5807 5789 5786 5792 5797 5798 5794 5785 5780 5781 5779 5770 5764 5773 5773 5773 5774 5773 5773 5772 5770 5766 5760 5760 5760 5760 5759 5759 5758 5757 5756 5755 5754 5754 5752 5752 5752 5751 5750 5750 5750 5749 5748 5748 5748 5747 5746
5833 5825 5806 5798 5791 5790 5795 5802 5794 5786 5780 5781 5784 5772 5768 5773 5775 5776 5774 5773 5773 5772 5771 5768 5767 5762 5760 5759 5758 5757 5757 5756 5755 5753 5752 5751 5750 5750 5750 5749 5749 5748 5748 5747 5747 5747 5746 5746 5745
5843 5832 5811 5805 5796 5792 5801 5803 5799 5792 5783 5790 5790 5774 5768 5773 5778 5777 5775 5773 5772 5771 5771 5768 5768 5766 5764 5761 5757 5756 5755 5754 5753 5752 5750 5749 5749 5749 5748 5748 5748 5747 5747 5746 5746 5746 5746 5746 5745
5847 5828 5809 5808 5804 5799 5806 5800 5799 5802 5792 5789 5790 5786 5783 5781 5779 5774 5771 5769 5768 5767 5768 5769 5768 5765 5764 5763 5758 5756 5754 5753 5752 5751 5749 5750 5750 5750 5749 5748 5747 5747 5746 5745 5745 5745 5745 5746 5745
5842 5822 5813 5820 5821 5813 5807 5804 5801 5797 5788 5784 5784 5785 5785 5781 5777 5772 5770 5767 5765 5764 5766 5767 5766 5764 5764 5762 5759 5758 5757 5754 5753 5752 5751 5751 5750 5749 5749 5746 5746 5746 5745 5745 5745 5745 5746 5747 5749
5840 5825 5825 5827 5828 5823 5811 5807 5808 5799 5787 5787 5783 5782 5782 5780 5776 5774 5771 5770 5768 5767 5767 5766 5765 5763 5763 5761 5760 5759 5757 5755 5754 5752 5751 5751 5751 5751 5750 5748 5747 5746 5746 5747 5746 5747 5750 5750 5750
5837 5833 5833 5830 5830 5824 5816 5812 5807 5803 5797 5801 5796 5791 5785 5781 5778 5775 5772 5770 5769 5767 5766 5766 5765 5762 5761 5761 5760 5758 5758 5756 5755 5752 5753 5753 5752 5752 5751 5749 5749 5748 5748 5748 5749 5749 5749 5749 5749
5836 5832 5835 5835 5831 5827 5821 5813 5808 5804 5807 5806 5799 5792 5787 5784 5781 5779 5777 5773 5771 5767 5766 5766 5764 5762 5760 5758 5759 5759 5757 5757 5756 5753 5753 5753 5754 5754 5753 5751 5750 5751 5750 5749 5749 5749 5748 5748 5749
5840 5837 5834 5833 5830 5826 5818 5813 5809 5804 5809 5802 5796 5791 5790 5786 5783 5780 5776 5773 5771 5769 5768 5767 5765 5763 5761 5759 5758 5758 5758 5756 5757 5755 5755 5754 5755 5754 5753 5751 5750 5751 5751 5750 5749 5749 5748 5748 5748
5846 5832 5828 5830 5829 5826 5821 5807 5807 5812 5809 5800 5796 5793 5790 5788 5786 5781 5779 5776 5775 5772 5770 5768 5766 5764 5762 5761 5760 5760 5759 5759 5757 5756 5755 5754 5755 5754 5754 5754 5752 5752 5751 5750 5749 5748 5748 5748 5748
5840 5830 5819 5826 5829 5827 5817 5802 5812 5817 5809 5801 5798 5795 5791 5789 5788 5786 5784 5780 5778 5775 5772 5770 5771 5766 5763 5761 5760 5761 5760 5758 5758 5757 5756 5755 5754 5754 5754 5754 5754 5752 5752 5751 5750 5749 5749 5748 5747
5831 5824 5821 5822 5831 5827 5819 5809 5815 5819 5812 5803 5800 5798 5795 5791 5790 5789 5788 5784 5781 5777 5774 5771 5770 5767 5765 5763 5761 5760 5759 5758 5758 5758 5757 5756 5755 5754 5754 5754 5753 5752 5752 5751 5751 5750 5748 5746 5745
5824 5826 5823 5821 5829 5825 5818 5816 5818 5819 5815 5809 5805 5802 5798 5794 5792 5793 5790 5788 5784 5780 5776 5773 5770 5768 5766 5765 5762 5761 5760 5760 5759 5758 5757 5756 5756 5755 5755 5754 5753 5753 5753 5751 5750 5747 5747 5746 5745
5835 5829 5824 5825 5834 5825 5818 5816 5819 5820 5816 5812 5808 5805 5801 5799 5800 5797 5794 5791 5786 5782 5778 5774 5772 5769 5767 5766 5764 5762 5760 5761 5760 5759 5757 5757 5756 5756 5755 5756 5753 5753 5752 5751 5751 5749 5746 5745 5745
5833 5826 5824 5825 5831 5825 5819 5818 5825 5823 5818 5817 5813 5808 5806 5804 5801 5798 5795 5793 5789 5784 5780 5777 5774 5772 5770 5768 5766 5764 5763 5763 5763 5762 5758 5758 5757 5756 5757 5754 5754 5754 5752 5750 5749 5748 5746 5746 5746
5828 5827 5826 5822 5824 5826 5820 5814 5819 5824 5824 5821 5819 5817 5814 5809 5805 5801 5798 5795 5792 5788 5784 5782 5778 5775 5773 5771 5770 5767 5764 5764 5764 5761 5760 5759 5758 5758 5756 5755 5755 5754 5754 5752 5750 5748 5746 5745 5746
5821 5835 5831 5824 5817 5817 5818 5806 5817 5822 5819 5819 5820 5820 5819 5816 5813 5808 5804 5799 5797 5793 5790 5786 5781 5778 5776 5774 5772 5769 5766 5763 5763 5763 5762 5761 5760 5759 5758 5756 5755 5754 5754 5752 5751 5751 5749 5745 5745
5829 5836 5831 5826 5820 5817 5818 5810 5818 5823 5816 5820 5824 5825 5825 5823 5819 5813 5810 5805 5802 5799 5795 5790 5785 5781 5778 5777 5774 5771 5769 5768 5768 5766 5763 5762 5762 5760 5759 5757 5756 5754 5754 5752 5751 5749 5748 5747 5746
5833 5828 5823 5823 5821 5799 5811 5806 5808 5824 5822 5826 5828 5828 5828 5827 5823 5819 5815 5810 5805 5803 5798 5793 5786 5782 5781 5778 5777 5773 5771 5769 5767 5765 5764 5763 5763 5762 5760 5758 5757 5756 5754 5753 5751 5749 5748 5747 5745
5827 5814 5798 5794 5795 5798 5814 5806 5810 5830 5834 5833 5831 5831 5830 5829 5824 5819 5815 5810 5806 5803 5800 5796 5789 5784 5782 5781 5779 5776 5774 5771 5768 5767 5766 5765 5765 5763 5760 5760 5757 5756 5754 5753 5752 5750 5748 5747 5745
5821 5819 5795 5782 5788 5802 5805 5803 5820 5836 5838 5837 5836 5835 5832 5829 5826 5821 5817 5813 5809 5805 5801 5797 5791 5787 5785 5783 5781 5779 5777 5775 5774 5771 5771 5769 5767 5766 5763 5760 5758 5756 5755 5754 5752 5751 5749 5747 5744
5817 5817 5830 5812 5804 5796 5805 5810 5822 5833 5831 5832 5832 5831 5829 5829 5827 5823 5820 5817 5812 5808 5804 5800 5795 5791 5788 5786 5783 5781 5779 5777 5776 5773 5772 5771 5768 5767 5764 5761 5759 5757 5755 5753 5751 5749 5747 5745 5744
5827 5826 5815 5805 5783 5781 5795 5803 5810 5818 5822 5827 5827 5828 5829 5829 5827 5825 5822 5819 5816 5812 5808 5803 5798 5793 5791 5788 5786 5784 5781 5778 5776 5775 5773 5771 5769 5766 5763 5761 5759 5757 5754 5753 5750 5749 5746 5744 5742
5808 5810 5810 5808 5805 5787 5782 5800 5828 5823 5825 5826 5827 5828 5828 5827 5826 5825 5822 5821 5817 5814 5809 5803 5799 5795 5791 5789 5787 5785 5782 5780 5778 5775 5773 5771 5769 5766 5762 5760 5758 5756 5753 5751 5748 5747 5745 5743 5741
5817 5813 5808 5791 5789 5796 5794 5801 5832 5829 5830 5829 5826 5826 5826 5825 5825 5824 5822 5818 5815 5812 5809 5804 5801 5797 5793 5790 5786 5784 5781 5779 5778 5776 5773 5771 5768 5766 5763 5760 5758 5756 5753 5750 5747 5745 5744 5741 5739